Date,TemperatureHighF,TemperatureAvgF,TemperatureLowF,DewpointHighF,DewpointAvgF,DewpointLowF,HumidityHigh,HumidityAvg,HumidityLow,PressureMaxIn,PressureMinIn,WindSpeedMaxMPH,WindSpeedAvgMPH,GustSpeedMaxMPH,PrecipitationSumIn
2013-1-1,79.5,73.4,67.8,62.1,59.1,56.3,70,61,53,29.86,29.71,25,5,25,0.00
2013-1-2,80.8,71.6,63.5,66.6,61.8,56.1,79,71,61,29.74,29.64,21,4,25,0.00
2013-1-3,81.5,74.0,67.8,68.2,64.6,61.1,80,73,61,29.78,29.68,27,6,27,0.00
2013-1-4,81.5,73.1,66.9,69.5,65.2,60.7,82,76,66,29.88,29.76,26,3,26,0.00
2013-1-5,76.3,70.5,67.6,67.3,64.2,61.8,84,80,72,29.91,29.81,25,5,27,0.12
2013-1-6,81.9,75.3,66.7,70.3,66.9,60.7,84,76,67,29.84,29.71,22,5,28,0.06
2013-1-7,74.8,71.5,68.5,66.9,65.0,62.5,83,80,75,29.82,29.72,29,7,29,0.37
2013-1-8,82.0,77.2,73.6,70.9,68.7,66.5,81,75,68,29.85,29.72,16,5,22,0.16
2013-1-9,82.4,77.8,75.2,70.6,68.4,66.6,81,73,67,29.93,29.81,19,6,19,0.12
2013-1-10,81.0,77.0,74.8,67.0,65.0,63.3,73,67,56,29.95,29.84,19,7,19,0.00
2013-1-11,81.0,76.4,74.3,68.3,65.7,63.7,75,70,64,29.91,29.81,16,5,16,0.00
2013-1-12,80.8,76.1,73.8,66.8,65.2,62.9,77,69,62,29.83,29.74,14,5,14,0.02
2013-1-13,82.0,76.2,73.2,67.1,64.0,62.0,73,66,58,29.78,29.72,16,6,17,0.02
2013-1-14,80.4,75.7,72.0,64.8,62.8,59.9,71,64,58,29.82,29.77,12,4,12,0.02
2013-1-15,79.7,75.7,73.0,66.0,64.2,60.8,73,68,62,29.79,29.69,21,5,114,0.00
2013-1-16,82.2,75.6,67.8,68.3,64.9,59.0,78,70,61,29.76,29.67,23,6,25,0.02
2013-1-17,80.2,72.0,62.2,69.1,64.0,52.7,82,76,68,29.74,29.62,22,6,24,0.88
2013-1-18,70.3,64.3,53.8,58.4,51.9,43.9,70,64,57,29.89,29.74,16,4,16,0.16
2013-1-19,71.8,69.8,67.1,64.1,60.8,57.0,82,73,63,29.84,29.74,22,6,26,0.10
2013-1-20,78.8,71.5,64.8,67.2,63.4,59.1,84,76,65,29.79,29.67,22,3,24,0.12
2013-1-21,80.4,72.8,67.3,68.7,64.3,60.9,83,75,65,29.72,29.61,23,7,28,0.04
2013-1-22,76.5,68.8,-22.0,61.1,56.9,-32.4,80,66,54,29.87,29.65,22,8,22,0.02
2013-1-23,75.7,69.1,62.8,57.3,53.3,50.4,69,58,47,29.94,29.85,22,6,22,0.00
2013-1-24,76.5,66.8,60.1,54.1,51.5,47.8,72,59,44,29.94,29.85,23,5,25,0.00
2013-1-25,77.0,68.0,60.1,59.8,53.7,48.7,69,61,49,29.94,29.82,24,6,26,0.00
2013-1-26,78.6,69.2,61.0,60.1,56.4,51.3,75,64,50,29.91,29.81,24,5,26,0.00
2013-1-27,78.4,71.4,63.9,61.6,58.7,55.6,75,65,51,29.94,29.85,20,6,114,0.00
2013-1-28,80.2,75.3,72.1,64.9,62.3,59.0,72,64,55,29.97,29.87,18,6,18,0.00
2013-1-29,79.7,75.1,73.0,67.4,64.6,62.6,73,70,66,29.89,29.78,15,5,16,0.00
2013-1-30,80.8,75.3,72.0,66.8,63.9,61.0,76,68,61,29.77,29.62,23,6,23,0.00
2013-1-31,73.6,68.6,60.4,66.9,57.4,41.2,81,68,48,29.83,29.60,26,6,26,0.00